Location: Chena
(64.8152°N, 147.9227°W)
Time: 14:09:28
(UTC+00:00)

N. Korean satellite - Pass Details

Date: 26 January 2021
Orbit: 451 x 503 km, 97.2° (Epoch: 28 February)

Event Time Altitude Azimuth Distance (km) Brightness Sun altitude
Rises 03:59:42 0° 225° (SW) 2,576 11.2 -16.4°
Reaches altitude 10° 04:03:18 10° 263° (W) 1,687 10.6 -16.7°
Maximum altitude 04:04:20 11° 280° (W) 1,624 10.3 -16.8°
Drops below altitude 10° 04:05:22 10° 296° (WNW) 1,682 10.1 -17.0°
Sets 04:08:56 0° 335° (NNW) 2,553 10.5 -17.3°
